GW3497 Weather Reports


time (UTC)temp
C
wind
direction
speed
KPH
gust
KPH
rain 1hr
cm
rain 24hr
cm
rain mn
cm
humidity
%
barometer
mb
20260504130437 14 0.0 0.0 0.00 1.02 0.38 85 1014.8
20260504110424 12 0.0 0.0 0.00 1.02 0.38 90 1014.8
20260504100413 11 0.0 0.0 0.00 1.02 0.38 92 1014.9
20260504081645 11 0.0 0.0 0.00 1.02 0.38 93 1014.2
20260504080842 11 0.0 0.0 0.00 1.02 0.38 94 1014.1
20260504080631 10 0.0 0.0 0.00 1.02 0.38 93 1014.1
20260504070328 10 0.0 0.0 0.00 1.02 0.38 93 1013.8
20260504060210 10 0.0 0.0 0.00 1.02 0.38 93 1013.0
20260504050311 10 72 3.2 9.7 0.00 1.02 0.38 92 1012.5
20260504045813 10 24 4.8 9.7 0.00 1.02 0.38 92 1012.4
20260504045313 10 51 4.8 11.3 0.00 1.02 0.38 92 1012.4
20260504044813 10 45 1.6 11.3 0.00 1.02 0.38 92 1012.3
20260504044313 10 31 3.2 11.3 0.00 1.02 0.38 92 1012.3
20260504044140 10 63 6.4 14.5 0.00 1.02 0.38 92 1012.3
20260504043310 10 54 9.7 14.5 0.00 1.02 0.38 92 1012.3
20260504042810 10 47 4.8 8.0 0.00 1.02 0.38 92 1012.2
20260504042309 10 49 0.0 6.4 0.00 1.02 0.38 92 1012.3
20260504041809 10 4 1.6 8.0 0.00 1.02 0.38 92 1012.4
20260504041311 10 58 1.6 8.0 0.00 1.02 0.38 92 1012.4
20260504040809 11 61 3.2 11.3 0.00 1.02 0.38 92 1012.3
20260504040309 11 49 6.4 11.3 0.00 1.02 0.38 92 1012.3
20260504035809 11 35 8.0 11.3 0.00 1.02 0.38 92 1012.3
20260504035600 11 28 3.2 8.0 0.00 1.02 0.38 92 1012.3
20260504034808 11 31 3.2 8.0 0.00 1.02 0.38 92 1012.1
20260504034308 11 52 0.0 8.0 0.00 1.02 0.38 92 1012.1
20260504033808 11 58 3.2 11.3 0.00 1.02 0.38 92 1012.1
20260504033310 11 56 6.4 14.5 0.00 1.02 0.38 92 1012.2
20260504032808 11 35 6.4 14.5 0.00 1.02 0.38 92 1012.1
20260504032311 11 51 6.4 11.3 0.00 1.02 0.38 92 1012.1
20260504031810 11 37 3.2 11.3 0.00 1.02 0.38 92 1012.1
20260504031308 11 25 1.6 9.7 0.00 1.02 0.38 92 1012.1
20260504031137 11 47 3.2 6.4 0.00 1.02 0.38 92 1012.1
20260504030308 11 44 3.2 8.0 0.00 1.02 0.38 92 1012.0
20260504025808 11 38 4.8 8.0 0.00 1.02 0.38 92 1012.0
20260504025617 11 41 1.6 9.7 0.00 1.02 0.38 92 1012.0
20260504024809 11 6 3.2 11.3 0.00 1.02 0.38 92 1012.0
20260504024306 11 353 4.8 11.3 0.00 1.02 0.38 92 1011.8
20260504023808 11 45 3.2 9.7 0.00 1.02 0.38 92 1011.8
20260504023309 11 41 3.2 9.7 0.00 1.02 0.38 92 1011.8
20260504022807 11 48 1.6 14.5 0.00 1.02 0.38 92 1011.7
20260504022307 11 27 3.2 14.5 0.00 1.02 0.38 92 1011.7
20260504022133 11 42 1.6 8.0 0.00 1.02 0.38 92 1011.7
20260504021307 11 47 3.2 9.7 0.00 1.02 0.38 92 1011.7
20260504020807 11 51 4.8 9.7 0.00 1.02 0.38 92 1011.6
20260504020608 11 45 6.4 8.0 0.00 1.02 0.38 92 1011.7
20260504015807 11 59 4.8 9.7 0.00 1.02 0.38 92 1011.7
20260504015603 12 58 4.8 9.7 0.00 1.02 0.38 92 1011.7
20260504014808 12 58 1.6 11.3 0.00 1.02 0.38 91 1011.7
20260504014308 12 49 4.8 11.3 0.00 1.02 0.38 91 1011.7
20260504014136 12 55 3.2 6.4 0.00 1.02 0.38 91 1011.8
20260504013613 12 54 1.6 9.7 0.00 1.02 0.38 91 1011.8
20260504013142 12 52 3.2 9.7 0.00 1.02 0.38 91 1011.8
20260504012307 12 52 3.2 9.7 0.00 1.02 0.38 91 1011.8
20260504011807 12 51 3.2 8.0 0.00 1.02 0.38 91 1011.7
20260504011309 12 0 3.2 8.0 0.00 1.02 0.38 91 1011.7
20260504010807 12 347 3.2 8.0 0.03 1.02 0.38 91 1011.8
20260504010307 12 0 1.6 8.0 0.05 1.02 0.38 91 1011.8
20260504005808 12 13 1.6 8.0 0.08 0.94 0.38 91 1011.8
20260504005308 12 14 3.2 8.0 0.18 0.94 0.38 91 1011.7
20260504004807 12 37 3.2 6.4 0.23 0.94 0.38 91 1011.7
20260504004308 12 0 1.6 4.8 0.28 0.94 0.38 91 1011.8
20260504004134 12 13 0.0 6.4 0.33 0.94 0.38 90 1011.9
20260504003306 12 10 1.6 6.4 0.33 0.94 0.38 90 1011.9
20260504002807 12 6 3.2 6.4 0.33 0.94 0.38 90 1011.8
20260504002306 12 14 1.6 8.0 0.33 0.94 0.38 90 1011.8
20260504002132 12 13 1.6 8.0 0.33 0.94 0.38 90 1011.8
20260504001307 12 0 3.2 8.0 0.33 0.94 0.36 90 1011.8
20260504000807 12 0 1.6 6.4 0.36 0.94 0.36 90 1011.8
20260504000308 12 52 3.2 6.4 0.33 0.94 0.33 90 1011.7
20260503235807 12 45 0.0 3.2 0.30 0.64 0.28 89 1011.8
20260503235308 12 45 1.6 3.2 0.23 0.64 0.18 89 1011.9
20260503234807 12 45 0.0 3.2 0.20 0.64 0.15 89 1011.8
20260503234306 12 45 0.0 1.6 0.18 0.64 0.10 89 1011.7
20260503233806 12 45 0.0 1.6 0.15 0.64 0.05 89 1011.8
20260503233306 12 45 0.0 4.8 0.25 0.64 0.05 89 1011.7
20260503232807 12 45 0.0 6.4 0.53 0.64 0.05 88 1011.7
20260503232603 12 42 1.6 6.4 0.71 0.64 0.05 88 1011.5
20260503231807 12 42 1.6 6.4 0.71 0.64 0.05 88 1011.5
20260503231306 12 42 3.2 8.0 0.69 0.64 0.05 88 1011.6
20260503230808 13 35 4.8 8.0 0.64 0.64 0.00 88 1011.6
20260503230309 13 44 1.6 6.4 0.64 0.64 0.00 88 1011.4
20260503225809 13 51 1.6 8.0 0.64 0.00 0.61 87 1011.4
20260503225310 13 58 4.8 8.0 0.61 0.00 0.61 87 1011.4
20260503224807 13 56 4.8 8.0 0.61 0.00 0.61 87 1011.4
20260503224307 13 75 4.8 8.0 0.56 0.00 0.56 87 1011.4
20260503223808 13 59 3.2 8.0 0.53 0.00 0.51 86 1011.4
20260503223307 13 302 3.2 14.5 0.43 0.00 0.38 86 1011.3
20260503223201 13 255 6.4 14.5 0.15 0.00 0.10 85 1011.5
20260503222306 13 245 4.8 9.7 0.00 0.00 0.00 83 1011.5
20260503221808 13 47 6.4 9.7 0.00 0.00 0.00 83 1011.2
20260503221305 13 44 4.8 9.7 0.00 0.00 0.00 82 1010.9
20260503220806 13 0 1.6 3.2 0.00 0.00 0.00 81 1010.9
20260503220304 13 0 1.6 3.2 0.00 0.00 0.00 81 1010.7
20260503215806 13 0 0.0 3.2 0.00 0.00 0.00 81 1010.7
20260503215305 13 0 0.0 4.8 0.00 0.00 0.00 81 1010.7
20260503215136 13 0 3.2 4.8 0.00 0.00 0.00 81 1010.6
20260503214303 13 0 0.0 6.4 0.00 0.00 0.00 80 1010.6
20260503213804 13 0 3.2 6.4 0.00 0.00 0.00 81 1010.7
20260503213304 13 317 1.6 4.8 0.00 0.00 0.00 80 1010.6
20260503212804 13 316 0.0 6.4 0.00 0.00 0.00 80 1010.5
20260503212305 13 316 0.0 6.4 0.00 0.00 0.00 80 1010.6
20260503212136 13 306 0.0 1.6 0.00 0.00 0.00 79 1010.6
20260503211618 13 306 0.0 0.0 0.00 0.00 0.00 79 1010.6
20260503210805 13 306 0.0 0.0 0.00 0.00 0.00 79 1010.5
20260503210302 13 306 0.0 0.0 0.00 0.00 0.00 79 1010.5
20260503205803 13 306 0.0 0.0 0.00 0.00 0.00 78 1010.5
20260503205304 13 306 0.0 0.0 0.00 0.00 0.00 78 1010.3
20260503204803 13 306 0.0 0.0 0.00 0.00 0.00 79 1010.3
20260503204301 14 306 0.0 0.0 0.00 0.00 0.00 78 1010.2
20260503203904 14 306 0.0 0.0 0.00 0.00 0.00 77 1010.3
20260503203841 14 306 0.0 0.0 0.00 0.00 0.00 77 1010.3
20260503203142 14 306 0.0 0.0 0.00 0.00 0.00 77 1010.2
20260503202300 15 306 0.0 0.0 0.00 0.00 0.00 76 1010.2
20260503201802 15 306 0.0 0.0 0.00 0.00 0.00 75 1010.1
20260503201303 15 306 0.0 0.0 0.00 0.03 0.00 75 1010.1
20260503200809 15 306 0.0 0.0 0.00 0.03 0.00 74 1010.0
20260503200306 15 306 0.0 0.0 0.00 0.13 0.00 73 1010.0
20260503195756 15 306 0.0 0.0 0.00 0.13 0.00 73 1009.9
20260503195256 15 306 0.0 0.0 0.00 0.13 0.00 73 1009.8
20260503194747 -17 306 0.0 0.0 0.00 0.13 0.00 1009.7
20260503194244 -17 306 0.0 0.0 0.00 0.13 0.00 1009.6
20260503193743 16 306 0.0 0.0 0.00 0.13 0.00 70 1009.7
20260503193239 16 306 0.0 0.0 0.00 0.13 0.00 70 1009.6
20260503192736 16 306 0.0 0.0 0.00 0.13 0.00 70 1009.7
20260503192530 16 306 0.0 0.0 0.00 0.13 0.00 70 1009.6
20260503191737 -17 306 0.0 0.0 0.00 0.13 0.00 1009.6
20260503191233 16 306 0.0 0.0 0.00 0.13 0.00 70 1009.5
20260503190735 16 306 0.0 0.0 0.00 0.13 0.00 70 1009.5
20260503190235 -17 306 0.0 0.0 0.00 0.13 0.00 1009.3
20260503190117 -17 306 0.0 1.6 0.00 0.13 0.00 1009.3
20260503185230 -17 306 0.0 1.6 0.00 0.13 0.00 1009.2
20260503184730 -17 306 0.0 1.6 0.00 0.13 0.00 1009.1
20260503184336 17 307 3.2 4.8 0.00 0.13 0.00 67 1009.1
20260503184318 17 306 1.6 1.6 0.00 0.13 0.00 67 1009.1
20260503183518 17 307 3.2 4.8 0.00 0.13 0.00 66 1009.0
20260503182717 17 307 0.0 1.6 0.00 0.13 0.00 66 1009.0
20260503182212 -17 307 1.6 1.6 0.00 0.13 0.00 1008.8
20260503181713 -17 307 3.2 3.2 0.00 0.13 0.00 1008.9
20260503181213 -17 307 3.2 4.8 0.00 0.13 0.00 1008.8
20260503180711 17 309 3.2 4.8 0.00 0.15 0.00 66 1008.8
20260503180211 17 327 1.6 1.6 0.00 0.15 0.00 66 1008.9
20260503175804 17 0.0 0.0 0.00 0.15 0.00 66 1008.9
20260503175749 -17 327 1.6 1.6 0.00 0.15 0.00 1008.9
20260503174711 17 313 4.8 4.8 0.00 0.18 0.00 66 1008.9
20260503174210 17 313 4.8 4.8 0.00 0.18 0.00 66 1008.9
20260503173712 17 314 1.6 3.2 0.00 0.18 0.00 66 1008.8
20260503173210 -17 314 3.2 4.8 0.00 0.20 0.00 1008.8
20260503172710 -17 296 4.8 4.8 0.00 0.20 0.00 1008.8
20260503172452 17 321 0.0 0.0 0.00 0.20 0.00 67 1008.7
20260503171711 17 0.0 0.0 0.00 0.20 0.00 67 1008.8
20260503171210 17 0.0 0.0 0.00 0.23 0.00 68 1008.8
20260503170958 17 300 4.8 4.8 0.00 0.23 0.00 66 1008.9
20260503170210 17 300 4.8 4.8 0.00 0.23 0.00 66 1009.0
20260503160206 17 310 1.6 3.2 0.00 0.51 0.00 68 1008.9
20260503150706 18 341 6.4 8.0 0.00 0.51 0.00 64 1009.0
20260503150207 18 341 6.4 8.0 0.00 0.51 0.00 64 1009.0